Airfield :
LOGIN :

Register | Disclaimer

   EN    FR    IT 

 










Legend :    VFR   Marginal VFR   IFR   Intensive IFR   Very Intensive IFR
Visi :
Ceiling :
>= 8 km
>= 3000ft
5 to 8 km
1000 to 3000 ft
1500m to 5 km
500 to 1000 ft
800 to 1500m
200 to 500 ft
< 800m
< 200 ft
Symbols :   Thunderstorms  Fog  Heavy snow  Heavy precipitations  Wind > 20 kt
SIGMETs :     Misc.  Thunderstorms  Icing  Turbulence  Mountain Waves  Volcanic Ashes






- Airport Elevation : 686 ft


LYKV - Ladevci

CURRENT METAR :
  • 030730Z 00000KT 9999 FEW040 24/17 Q1017 NOSIG

EXPIRED METARs :
  • 030700Z VRB01KT CAVOK 23/17 Q1017 NOSIG
  • 030630Z VRB01KT CAVOK 21/17 Q1017 NOSIG
  • 030600Z VRB01KT CAVOK 20/17 Q1017 NOSIG
  • 030530Z 00000KT CAVOK 19/16 Q1017 NOSIG
  • 030500Z 00000KT CAVOK 18/16 Q1017 NOSIG

TAF TAF LYKV
Valid from the 03 at 06:00 until the 04 at 06:00 UTC


030500Z 0306/0406 02006KT CAVOK TX31/0313Z TN16/0403Z



MET'MAP, your aeronautical weather chart ! - Copyright ORBIFLY December 2007 - Disclaimer

ORBIFLY MET'MAP TEAM :

Programming & Development : Alexandra Zaïnal
Concept & original design : Baudouin d'Aumeries
Assistance for programming : Marc-Olivier Méhu
Technical & hardware support : Manuel Goepfert

Contact : metmap@orbifly.com




SOURCES & CREDITS :

   NOAA